Weather in Vernadovka

Russia / Tambov Oblast     53°18′22″N   42°23′20″E
temp.,
°C
wind,
m/s
gust,
m/s
humid.,
%
clouds,
%
prec.,
mm/h
press.,
hPa
HPBL,
m
28 july, wed
wed2800:00+18wnw116391 0.0 101811
03:00+20nw23577 0.0 101847
06:00+19nw126514 0.0 101759
09:00+24nw11505 0.0 1017599
12:00+28sw123821 0.0 10162310
15:00+29w2331100 0.0 10142519
18:00+25nw2343100 0.0 101440
21:00+18nne2387100 1.1 1016107
29 july, thu
thu2900:00+19e4581100 0.0 101386
03:00+19ese4975100 0.1 1011225
06:00+20sse61268100 0.0 1010347
09:00+24sw685281 0.0 1008834
12:00+28wsw794212 0.0 10071988
15:00+28wnw7104480 0.0 10061765
18:00+28nw610445 0.0 10061820
21:00+21nnw33678 0.0 100744
30 july, fri
fri3000:00+20wsw11722 0.0 100811
03:00+22s346568 0.0 100883
06:00+21ssw2466100 0.0 1007144
09:00+27sw564819 0.0 1007633
12:00+30sw673877 0.0 10071782
15:00+32ssw693396 0.1 10042753
18:00+25nne226071 0.6 100593
21:00+20sse5893100 4.7 1006216
31 july, sat
sat3100:00+19wsw3894100 0.3 1006171
03:00+18wnw389694 0.3 1006204
06:00+19wnw37930 0.0 1007226
09:00+24wnw46625 0.0 1008806
12:00+28wnw57361 0.0 10082170
15:00+29wnw57310 0.0 10082606
18:00+28wsw46331 0.0 1008675
21:00+24w344498 0.0 100961
1 august, sun
sun100:00+21wsw335270 0.0 101028
03:00+19wsw33585 0.0 101131
06:00+20wsw35615 0.0 1012113
09:00+27sw45412 0.0 1011656
12:00+31sw56300 0.0 10102357
15:00+32sw67260 0.0 10092752
18:00+31ssw57300 0.0 1008701
21:00+25s493911 0.0 1009119